User: anonymous   Login
Location: Newark
(45.2500°N, 7.5833°E)
Time: 18:03:31
(UTC+00:00)
Language:

A-11 Canister half - Orbit

View from above orbital plane
View from above orbital plane
View from above satellite
View from above satellite

Ground track
Ground track

The orbit data is extracted from the following two-line orbital elements,

1    51U 60009C   20026.41717262 -.00000118 +00000-0 -31616-3 0  9993
2    51 047.2137 069.9338 0104313 099.0174 262.2436 12.18270964646654
Epoch (UTC): 26 January 2020 10:00:43
Eccentricity: 0.0104313
inclination: 47.2137°
perigee height: 1517 km
apogee height: 1683 km
right ascension of ascending node: 69.9338°
argument of perigee: 99.0174°
revolutions per day: 12.18270964
mean anomaly at epoch: 262.2436°
orbit number at epoch: 64665

The dashed part of the orbit path shows where the satellite is in the earth's shadow,  

DLR